Hourly Weather Wierzbowa

Today, 13 July, Monday

Time Temperature Precipitation Wind Pressure Humidity
00:00 +12°C° 0 mm 1 mps 753 mmHg 80%
01:00 +12°C° 0 mm 1 mps 754 mmHg 82%
02:00 +12°C° 0 mm 1 mps 753 mmHg 84%
03:00 +10°C° 0 mm 2 mps 753 mmHg 86%
04:00 +10°C° 0 mm 2 mps 753 mmHg 88%
05:00 +12°C° 0 mm 2 mps 753 mmHg 83%
06:00 +14°C° 0 mm 2 mps 753 mmHg 79%
07:00 +15°C° 0 mm 2 mps 753 mmHg 74%
08:00 +16°C° 0 mm 3 mps 753 mmHg 71%
09:00 +17°C° 0 mm 3 mps 752 mmHg 67%
10:00 +18°C° 0 mm 4 mps 752 mmHg 63%
11:00 +19°C° 0.1 mm 4 mps 752 mmHg 64%
12:00 +19°C° 0.1 mm 4 mps 752 mmHg 64%
13:00 +19°C° 0.1 mm 4 mps 751 mmHg 64%
14:00 +19°C° 0.1 mm 4 mps 751 mmHg 63%
15:00 +20°C° 0.1 mm 4 mps 750 mmHg 63%
16:00 +20°C° 0.1 mm 4 mps 750 mmHg 62%
17:00 +19°C° 0.1 mm 3 mps 750 mmHg 67%
18:00 +19°C° 0.1 mm 2 mps 750 mmHg 72%
19:00 +19°C° 0.1 mm 1 mps 750 mmHg 77%
20:00 +18°C° 0 mm 1 mps 750 mmHg 79%
21:00 +16°C° 0 mm 1 mps 750 mmHg 82%
22:00 +14°C° 0 mm 1 mps 750 mmHg 84%
23:00 +14°C° 0 mm 1 mps 750 mmHg 85%

Tomorrow, 14 July, Tuesday

Time Temperature Precipitation Wind Pressure Humidity
00:00 +14°C° 0 mm 1 mps 750 mmHg 86%
01:00 +13°C° 0 mm 1 mps 750 mmHg 87%
02:00 +12°C° 0 mm 0 mps 749 mmHg 87%
03:00 +12°C° 0 mm 0 mps 749 mmHg 88%
04:00 +11°C° 0 mm 0 mps 749 mmHg 88%
05:00 +13°C° 0 mm 0 mps 749 mmHg 83%
06:00 +16°C° 0 mm 1 mps 749 mmHg 78%
07:00 +18°C° 0 mm 1 mps 749 mmHg 73%
08:00 +20°C° 0.1 mm 1 mps 749 mmHg 68%
09:00 +21°C° 0.1 mm 1 mps 749 mmHg 62%
10:00 +22°C° 0.1 mm 1 mps 748 mmHg 57%
11:00 +23°C° 0.1 mm 1 mps 748 mmHg 54%
12:00 +23°C° 0.1 mm 1 mps 748 mmHg 52%
13:00 +24°C° 0.1 mm 1 mps 747 mmHg 50%
14:00 +24°C° 0 mm 1 mps 747 mmHg 50%
15:00 +24°C° 0 mm 1 mps 747 mmHg 50%
16:00 +23°C° 0 mm 1 mps 746 mmHg 51%
17:00 +23°C° 0 mm 1 mps 746 mmHg 55%
18:00 +22°C° 0 mm 1 mps 746 mmHg 59%
19:00 +21°C° 0 mm 1 mps 746 mmHg 63%
20:00 +20°C° 0 mm 1 mps 746 mmHg 65%
21:00 +18°C° 0 mm 2 mps 746 mmHg 67%
22:00 +17°C° 0 mm 2 mps 746 mmHg 70%
23:00 +16°C° 0 mm 2 mps 746 mmHg 73%

Day after tomorrow, 15 July, Wednesday

Time Temperature Precipitation Wind Pressure Humidity
00:00 +16°C° 0 mm 2 mps 746 mmHg 77%
01:00 +15°C° 0 mm 2 mps 746 mmHg 81%
02:00 +15°C° 0 mm 2 mps 746 mmHg 82%
03:00 +15°C° 0 mm 2 mps 745 mmHg 84%
04:00 +15°C° 0 mm 2 mps 745 mmHg 85%
05:00 +16°C° 0 mm 3 mps 745 mmHg 81%
06:00 +18°C° 0 mm 3 mps 745 mmHg 77%
07:00 +19°C° 0 mm 3 mps 745 mmHg 73%
08:00 +21°C° 0.1 mm 3 mps 745 mmHg 65%
09:00 +22°C° 0.1 mm 4 mps 745 mmHg 58%
10:00 +25°C° 0.1 mm 4 mps 744 mmHg 50%
11:00 +25°C° 0 mm 4 mps 744 mmHg 49%
12:00 +26°C° 0 mm 4 mps 744 mmHg 48%
13:00 +26°C° 0 mm 5 mps 744 mmHg 46%
14:00 +26°C° 0 mm 4 mps 743 mmHg 48%
15:00 +26°C° 0 mm 4 mps 743 mmHg 50%
16:00 +26°C° 0 mm 4 mps 743 mmHg 53%
17:00 +23°C° 0.3 mm 4 mps 743 mmHg 60%
18:00 +22°C° 0.3 mm 3 mps 743 mmHg 68%
19:00 +20°C° 0.3 mm 3 mps 743 mmHg 75%
20:00 +19°C° 0.2 mm 3 mps 743 mmHg 80%
21:00 +18°C° 0.2 mm 2 mps 744 mmHg 84%
22:00 +17°C° 0.2 mm 2 mps 744 mmHg 88%
23:00 +17°C° 0.1 mm 2 mps 744 mmHg 90%

16 July, Thursday

Time Temperature Precipitation Wind Pressure Humidity
00:00 +17°C° 0.1 mm 3 mps 744 mmHg 91%
01:00 +16°C° 0.1 mm 3 mps 744 mmHg 93%
02:00 +16°C° 0.3 mm 3 mps 744 mmHg 94%
03:00 +16°C° 0.3 mm 2 mps 744 mmHg 95%
04:00 +16°C° 0.3 mm 2 mps 744 mmHg 97%
05:00 +16°C° 1.1 mm 2 mps 744 mmHg 96%
06:00 +16°C° 1.1 mm 2 mps 744 mmHg 95%
07:00 +16°C° 1.1 mm 2 mps 745 mmHg 95%
08:00 +16°C° 0.7 mm 2 mps 745 mmHg 92%
09:00 +16°C° 0.7 mm 3 mps 745 mmHg 90%
10:00 +17°C° 0.7 mm 3 mps 745 mmHg 87%
11:00 +18°C° 0.1 mm 3 mps 745 mmHg 81%
12:00 +19°C° 0.1 mm 2 mps 745 mmHg 75%
13:00 +20°C° 0.1 mm 2 mps 746 mmHg 68%
14:00 +20°C° 0.5 mm 2 mps 745 mmHg 68%
15:00 +20°C° 0.5 mm 2 mps 745 mmHg 68%
16:00 +20°C° 0.5 mm 2 mps 745 mmHg 68%
17:00 +20°C° 0.5 mm 2 mps 745 mmHg 72%
18:00 +19°C° 0.5 mm 2 mps 745 mmHg 77%
19:00 +19°C° 0.5 mm 1 mps 745 mmHg 81%
20:00 +19°C° 0.4 mm 1 mps 746 mmHg 84%
21:00 +18°C° 0.4 mm 1 mps 746 mmHg 86%
22:00 +16°C° 0.4 mm 1 mps 746 mmHg 88%
23:00 +16°C° 0.3 mm 1 mps 746 mmHg 89%

17 July, Friday

Time Temperature Precipitation Wind Pressure Humidity
00:00 +16°C° 0.3 mm 1 mps 746 mmHg 91%
01:00 +16°C° 0.3 mm 1 mps 746 mmHg 92%
02:00 +15°C° 0.2 mm 1 mps 746 mmHg 92%
03:00 +15°C° 0.2 mm 2 mps 746 mmHg 92%
04:00 +15°C° 0.2 mm 2 mps 746 mmHg 92%
05:00 +15°C° 0.1 mm 2 mps 746 mmHg 92%
06:00 +16°C° 0.1 mm 1 mps 746 mmHg 91%
07:00 +16°C° 0.1 mm 1 mps 746 mmHg 90%
08:00 +16°C° 0.7 mm 1 mps 746 mmHg 90%
09:00 +16°C° 0.7 mm 1 mps 747 mmHg 90%
10:00 +16°C° 0.7 mm 2 mps 747 mmHg 90%
11:00 +16°C° 0.4 mm 2 mps 747 mmHg 89%
12:00 +17°C° 0.4 mm 2 mps 747 mmHg 88%
13:00 +17°C° 0.4 mm 3 mps 746 mmHg 87%
14:00 +17°C° 0.1 mm 3 mps 746 mmHg 88%
15:00 +17°C° 0.1 mm 3 mps 746 mmHg 88%
16:00 +17°C° 0.1 mm 2 mps 746 mmHg 88%
17:00 +17°C° 0 mm 2 mps 746 mmHg 88%
18:00 +17°C° 0 mm 2 mps 746 mmHg 87%
19:00 +18°C° 0 mm 1 mps 746 mmHg 87%
20:00 +17°C° 0.1 mm 2 mps 746 mmHg 89%
21:00 +16°C° 0.1 mm 2 mps 746 mmHg 91%
22:00 +16°C° 0.1 mm 2 mps 747 mmHg 92%
23:00 +16°C° 0.2 mm 2 mps 747 mmHg 93%

18 July, Saturday

Time Temperature Precipitation Wind Pressure Humidity
00:00 +16°C° 0.2 mm 2 mps 747 mmHg 94%
01:00 +16°C° 0.2 mm 2 mps 747 mmHg 95%
02:00 +16°C° 0 mm 2 mps 747 mmHg 96%
03:00 +16°C° 0 mm 2 mps 747 mmHg 96%
04:00 +16°C° 0 mm 2 mps 747 mmHg 96%
05:00 +17°C° 0.1 mm 2 mps 747 mmHg 95%
06:00 +17°C° 0.1 mm 2 mps 747 mmHg 94%
07:00 +19°C° 0.1 mm 1 mps 747 mmHg 92%
08:00 +20°C° 0.7 mm 1 mps 747 mmHg 87%
09:00 +20°C° 0.7 mm 2 mps 747 mmHg 81%
10:00 +23°C° 0.7 mm 2 mps 747 mmHg 75%
11:00 +23°C° 0.8 mm 2 mps 747 mmHg 73%
12:00 +24°C° 0.8 mm 3 mps 747 mmHg 71%
13:00 +23°C° 0.8 mm 4 mps 747 mmHg 68%
14:00 +23°C° 0.7 mm 4 mps 747 mmHg 68%
15:00 +25°C° 0.7 mm 4 mps 747 mmHg 67%
16:00 +25°C° 0.7 mm 4 mps 747 mmHg 66%
17:00 +23°C° 0.1 mm 4 mps 747 mmHg 70%
18:00 +22°C° 0.1 mm 3 mps 747 mmHg 74%
19:00 +21°C° 0.1 mm 3 mps 747 mmHg 77%
20:00 +20°C° 0 mm 3 mps 747 mmHg 79%
21:00 +19°C° 0 mm 3 mps 747 mmHg 81%
22:00 +18°C° 0 mm 2 mps 748 mmHg 83%
23:00 +17°C° 0 mm 2 mps 748 mmHg 85%
Show more